| time (UTC) | temp F | wind direction | speed MPH | gust MPH | rain 1hr in | rain 24hr in | rain mn in | humidity % | barometer mb |
| 20260504034615 | 52 | 339 | 4.0 | 8.0 | 0.00 | 0.00 | 0.00 | 39 | 1014.1 |
| 20260504033002 | 53 | 5 | 4.0 | 9.0 | 0.00 | 0.00 | 0.00 | 39 | 1013.6 |
| 20260504031503 | 53 | 342 | 3.0 | 11.0 | 0.00 | 0.00 | 0.00 | 39 | 1013.4 |
| 20260504024506 | 54 | 346 | 4.0 | 8.0 | 0.00 | 0.00 | 0.00 | 40 | 1012.9 |
| 20260504023103 | 54 | 336 | 3.0 | 8.0 | 0.00 | 0.00 | 0.00 | 39 | 1012.9 |
| 20260504021603 | 54 | 325 | 5.0 | 9.0 | 0.00 | 0.00 | 0.00 | 39 | 1012.8 |
| 20260504020003 | 55 | 348 | 5.0 | 11.0 | 0.00 | 0.00 | 0.00 | 39 | 1012.6 |
| 20260504014619 | 55 | 326 | 7.0 | 12.0 | 0.00 | 0.00 | 0.00 | 38 | 1012.4 |
| 20260504013002 | 56 | 333 | 5.0 | 14.0 | 0.00 | 0.00 | 0.00 | 38 | 1012.1 |
| 20260504011503 | 56 | 344 | 5.0 | 11.0 | 0.00 | 0.00 | 0.00 | 38 | 1011.9 |
| 20260504010104 | 57 | 15 | 5.0 | 11.0 | 0.00 | 0.00 | 0.00 | 38 | 1011.8 |
| 20260504004502 | 57 | 288 | 5.0 | 11.0 | 0.00 | 0.00 | 0.00 | 38 | 1011.5 |
| 20260504003104 | 58 | 338 | 5.0 | 11.0 | 0.00 | 0.00 | 0.00 | 38 | 1011.5 |
| 20260504001623 | 58 | 9 | 7.0 | 12.0 | 0.00 | 0.00 | 0.00 | 36 | 1011.1 |
| 20260504000003 | 59 | 342 | 7.0 | 14.0 | 0.00 | 0.00 | 0.00 | 36 | 1011.1 |
| 20260503234603 | 59 | 19 | 7.0 | 15.0 | 0.00 | 0.00 | 0.00 | 37 | 1010.9 |
| 20260503233003 | 60 | 341 | 6.0 | 12.0 | 0.00 | 0.00 | 0.00 | 36 | 1010.6 |
| 20260503224502 | 61 | 48 | 4.0 | 12.0 | 0.00 | 0.00 | 0.00 | 33 | 1010.0 |
| 20260503223102 | 61 | 360 | 7.0 | 13.0 | 0.00 | 0.00 | 0.00 | 33 | 1010.1 |
| 20260503221602 | 61 | 350 | 5.0 | 12.0 | 0.00 | 0.00 | 0.00 | 33 | 1010.0 |
| 20260503220010 | 61 | 339 | 6.0 | 12.0 | 0.00 | 0.00 | 0.00 | 33 | 1010.0 |
| 20260503214602 | 61 | 240 | 5.0 | 13.0 | 0.00 | 0.00 | 0.00 | 33 | 1009.9 |
| 20260503213008 | 61 | 284 | 5.0 | 19.0 | 0.00 | 0.00 | 0.00 | 33 | 1010.1 |
| 20260503211502 | 61 | 288 | 5.0 | 12.0 | 0.00 | 0.00 | 0.00 | 33 | 1010.0 |
| 20260503210105 | 61 | 5 | 5.0 | 15.0 | 0.00 | 0.00 | 0.00 | 34 | 1009.8 |
| 20260503204504 | 61 | 5 | 6.0 | 12.0 | 0.00 | 0.00 | 0.00 | 34 | 1009.7 |
| 20260503203105 | 61 | 317 | 5.0 | 16.0 | 0.00 | 0.00 | 0.00 | 34 | 1009.6 |
| 20260503201603 | 61 | 22 | 5.0 | 13.0 | 0.00 | 0.00 | 0.00 | 34 | 1009.6 |
| 20260503200003 | 62 | 26 | 5.0 | 14.0 | 0.00 | 0.00 | 0.00 | 32 | 1009.5 |
| 20260503194604 | 64 | 281 | 6.0 | 11.0 | 0.00 | 0.00 | 0.00 | 31 | 1009.2 |
| 20260503193003 | 64 | 304 | 4.0 | 11.0 | 0.00 | 0.00 | 0.00 | 32 | 1009.0 |
| 20260503191609 | 65 | 296 | 4.0 | 12.0 | 0.00 | 0.00 | 0.00 | 32 | 1009.2 |
| 20260503190003 | 65 | 5 | 5.0 | 13.0 | 0.00 | 0.00 | 0.00 | 32 | 1009.3 |
| 20260503184611 | 65 | 310 | 4.0 | 10.0 | 0.00 | 0.00 | 0.00 | 31 | 1009.3 |
| 20260503183004 | 65 | 289 | 7.0 | 12.0 | 0.00 | 0.00 | 0.00 | 30 | 1009.2 |
| 20260503174502 | 65 | 22 | 4.0 | 10.0 | 0.00 | 0.00 | 0.00 | 31 | 1009.5 |
| 20260503173106 | 65 | 277 | 5.0 | 12.0 | 0.00 | 0.00 | 0.00 | 32 | 1009.3 |
| 20260503171604 | 64 | 321 | 5.0 | 11.0 | 0.00 | 0.00 | 0.00 | 32 | 1009.4 |
| 20260503160104 | 61 | 261 | 5.0 | 10.0 | 0.00 | 0.00 | 0.00 | 39 | 1009.4 |
| 20260503090106 | 51 | 239 | 0.0 | 4.0 | 0.00 | 0.00 | 0.00 | 46 | 1009.6 |
| 20260503081630 | 52 | 202 | 0.0 | 4.0 | 0.00 | 0.00 | 0.00 | 45 | 1009.8 |
| 20260503071507 | 53 | 235 | 0.0 | 1.0 | 0.00 | 0.00 | 0.00 | 43 | 1010.2 |
| 20260503070109 | 54 | 235 | 0.0 | 2.0 | 0.00 | 0.00 | 0.00 | 43 | 1010.2 |
| 20260503054605 | 57 | 221 | 0.0 | 2.0 | 0.00 | 0.00 | 0.00 | 38 | 1010.0 |
| 20260503053002 | 58 | 221 | 1.0 | 4.0 | 0.00 | 0.00 | 0.00 | 38 | 1009.9 |
| 20260503051502 | 57 | 235 | 0.0 | 4.0 | 0.00 | 0.00 | 0.00 | 39 | 1010.1 |
| 20260503044503 | 57 | 233 | 0.0 | 2.0 | 0.00 | 0.00 | 0.00 | 39 | 1009.9 |
| 20260503043115 | 58 | 233 | 0.0 | 2.0 | 0.00 | 0.00 | 0.00 | 38 | 1009.6 |
| 20260503041603 | 59 | 233 | 0.0 | 1.0 | 0.00 | 0.00 | 0.00 | 38 | 1009.6 |
| 20260503040002 | 60 | 232 | 0.0 | 0.0 | 0.00 | 0.00 | 0.00 | 35 | 1009.9 |